BRITE-PL2 (HEWELIUSZ)

Last updated on Sun Jun 21 2026 00:03:39 GMT+0000 (Coordinated Universal Time)

1 40119U 14049B 26171.31895785 .00001722 00000+0 16422-3 0 9995 2 40119 97.9101 283.3430 0015385 99.1118 261.1844 14.94603402641918
UTC large
Height (km)
Speed (km/s)
/
Latitude / Longitude
Inclination (degrees)
Orbital Period (minutes)
Azimuth
Elevation
Range (km)
Doppler Factor

Next 0 passes for location: London (51.5072 / 0.1276)

No passes found over London.
BRITE-PL2 (HEWELIUSZ)